Regional Weather Roundup
Issued by NWS

Home | Current Version | Previous Version | Text Only | Print | Product List | Glossary Off
Versions: 1 2 3 4 5 6 7 8 9 10 11 12 13 14 15 16 17 18 19 20 21 22 23 24 25 26 27 28 29 30 31 32 33 34 35 36 37 38 39 40 41 42 43 44 45 46 47 48 49 50

000
ASUS43 KIND 210109
RWRIN

WEATHER ROUNDUP FOR INDIANA
NATIONAL WEATHER SERVICE INDIANAPOLIS IN
900 PM EDT SUN APR 20 2014

NOTE: "FAIR" INDICATES FEW OR NO CLOUDS BELOW 12,000 FEET WITH NO
SIGNIFICANT WEATHER AND/OR OBSTRUCTIONS TO VISIBILITY.

* - STATION DOES NOT REPORT WEATHER SUCH AS PRECIPITATION OR FOG.

+ - STATION NOT QUALITY CONTROLLED BY THE NATIONAL WEATHER SERVICE.
    USE DATA WITH CAUTION...ESPECIALLY DEWPOINT AND RELATIVE
    HUMIDITY OBSERVATIONS.

INZ001>003-010>013-019-020-210200-
NORTHWEST INDIANA

CITY           SKY/WX    TMP DP  RH WIND       PRES   REMARKS
LA PORTE +     PTCLDY    67  34  29 S3        30.10S
MICHIGAN CITY+ CLEAR     68  32  26 CALM      30.09S
MONTICELLO +   PTCLDY    68  35  29 CALM      30.09S
RENSSELAER +   CLEAR     66  34  30 SE3       30.09S
VALPARAISO     CLEAR     67  36  31 SE6       30.09S

$$

LMZ046-743>745-210200-
SOUTHERN LAKE MICHIGAN

STATION/POSITION TIME  TEMP WIND        PRES
                       AIR  DIR/SP/G
                 (UTC) (F)  (DEG/KT/KT) (MB)
MICHIGAN CITY    0100   65   60/  2/  3   N/A

$$

INZ004-005-014>016-021>024-210200-
NORTH CENTRAL INDIANA

CITY           SKY/WX    TMP DP  RH WIND       PRES   REMARKS
GOSHEN         PTCLDY    66  32  28 SW3       30.11S
LOGANSPORT +   PTCLDY    64  28  25 CALM      30.11S
PERU/GRISSOM   CLEAR     66  38  35 CALM      30.11R
ROCHESTER +    PTCLDY    64  34  32 CALM      30.11S
SOUTH BEND     PTCLDY    68  29  23 S7        30.10F
WARSAW +       PTCLDY    61  34  36 CALM      30.11S

$$

INZ006>009-017-018-025>027-210200-
NORTHEAST INDIANA

CITY           SKY/WX    TMP DP  RH WIND       PRES   REMARKS
ANGOLA *+      CLEAR     63  45  51 CALM      30.11F
AUBURN +       PTCLDY    63  34  34 CALM      30.12S
FORT WAYNE     MOCLDY    61  36  39 CALM      30.12S

$$

INZ028-029-035-036-043>045-051>053-210200-
WEST CENTRAL INDIANA

CITY           SKY/WX    TMP DP  RH WIND       PRES   REMARKS
GREENCASTLE +  PTCLDY    64  37  36 CALM      30.11S
LAFAYETTE      CLEAR     66  38  35 SW3       30.09S
TERRE HAUTE    PTCLDY    67  42  40 CALM      30.10F

$$

INZ030>032-037>040-046>048-054>057-064-065-210200-
CENTRAL INDIANA

CITY           SKY/WX    TMP DP  RH WIND       PRES   REMARKS
CP ATTERBURY + PTCLDY    64  37  36 CALM      30.11S
COLUMBUS       CLEAR     64  37  36 CALM      30.11S
FRANKFORT +    CLEAR     64  34  32 S3        30.12S
GREENWOOD *+   PTCLDY    66  41  39 SE3       30.11
INDIANAPOLIS   PTCLDY    66  36  32 S5        30.11R
-EAGLE CREEK   PTCLDY    65  41  41 W3        30.10S
KOKOMO *+        N/A     64  37  36 S3        30.11R
MARION +       CLEAR     64  36  35 CALM      30.12R
MT COMFORT *+  PTCLDY    64  39  39 SE3       30.12R
SHELBYVILLE    PTCLDY    68  39  34 CALM      30.10S
ZIONSVILLE +   CLEAR     62  32  32 CALM      30.12R

$$

INZ033-034-041-042-049-050-058-059-210200-
EAST CENTRAL INDIANA

CITY           SKY/WX    TMP DP  RH WIND       PRES   REMARKS
MUNCIE         PTCLDY    67  36  31 CALM      30.11S

$$

INZ060-061-067>069-081>083-085>088-210200-
SOUTHWEST INDIANA

CITY           SKY/WX    TMP DP  RH WIND       PRES   REMARKS
EVANSVILLE     PTCLDY    67  42  40 N5        30.11S
HUNTINGBURG *+ PTCLDY    68  39  34 CALM      30.12R
WASHINGTON +   PTCLDY    62  45  52 CALM      30.11R

$$

INZ062-063-066-070>080-084-089>092-210200-
SOUTH CENTRAL AND SOUTHEAST INDIANA

CITY           SKY/WX    TMP DP  RH WIND       PRES   REMARKS
BLOOMINGTON    PTCLDY    63  38  39 CALM      30.11S

$$




USA.gov is the U.S. government's official web portal to all federal, state and local government web resources and services.